Tekamah, NE

4:19 AM CDT on June 26, 2017 (GMT -0500)
Tekamah

Weather History for KTQE - September, 2012

Change the Weather History Date:

Monday, September 17, 2012

  Actual Average Record
Temperature  
Mean Temperature 60 °F -  
Max Temperature 70 °F 73 °F 98 °F (1953)
Min Temperature 46 °F 50 °F 34 °F (1980)
Degree Days  
Heating Degree Days 6    
Growing Degree Days 10 (Base 50)    
Moisture  
Dew Point 49 °F    
Average Humidity 76    
Maximum Humidity 100    
Minimum Humidity 29    
Precipitation  
Precipitation 0.09 in - - ()
Sea Level Pressure  
Sea Level Pressure 29.98 in    
Wind  
Wind Speed 8 mph (North)    
Max Wind Speed 18 mph    
Max Gust Speed 28 mph    
Visibility 8 miles    
Events Fog , Rain , Thunderstorm    
Averages and records for this station are not official NWS values.
T = Trace of Precipitation, MM = Missing Value Source: NWS Daily Summary

Daily Weather History Graph

Daily Weather History Graph

Search for Another Location

Airport or City:

Trip Planner

Search our weather history database for the weather conditions in past years. The results will help you decide how hot, cold, wet, or windy it might be!

Date:

Astronomy

Sep. 17, 2012 Rise Set
Actual Time 7:07 AM CDT 7:29 PM CDT
Civil Twilight 6:39 AM CDT 7:57 PM CDT
Nautical Twilight 6:06 AM CDT 8:30 PM CDT
Astronomical Twilight 5:33 AM CDT 9:03 PM CDT
Moon 9:00 AM CDT (9/17) 8:09 PM CDT (9/17)
Length of Visible Light 13h 17m
Length of Day
12h 22m
Waxing Crescent, 3% of the Moon is Illuminated
Sep 17
Waxing Crescent
Sep 22
First Quarter
Sep 29
Full
Oct 8
Last Quarter
Oct 15
New

Hourly Weather History & Observations

Time (CDT) Temp. Dew Point Humidity Pressure Visibility Wind Dir Wind Speed Gust Speed Precip Events Conditions
12:54 AM 54.0 °F 52.0 °F 93% 29.90 in 8.0 mi SSW 3.5 mph - N/A   Clear
1:54 AM 54.0 °F 52.0 °F 93% 29.90 in 8.0 mi South 3.5 mph - N/A   Clear
2:28 AM 53.6 °F 51.8 °F 94% 29.92 in 2.0 mi ESE 3.5 mph - N/A   Clear
2:38 AM 53.6 °F 51.8 °F 94% 29.91 in 5.0 mi SE 3.5 mph - N/A   Clear
2:54 AM 55.0 °F 53.1 °F 93% 29.88 in 6.0 mi SE 6.9 mph - N/A   Clear
3:13 AM 51.8 °F 51.8 °F 100% 29.91 in 1.5 mi Calm Calm - N/A   Clear
3:21 AM 53.6 °F 51.8 °F 94% 29.91 in 0.8 mi North 4.6 mph - N/A   Mist
3:54 AM 55.9 °F 55.0 °F 97% 29.90 in 0.5 mi North 9.2 mph - N/A Fog Fog
4:00 AM 57.2 °F 55.4 °F 94% 29.92 in 2.5 mi North 8.1 mph - N/A   Mostly Cloudy
4:02 AM 57.2 °F 55.4 °F 94% 29.92 in 3.0 mi North 8.1 mph - N/A   Mostly Cloudy
4:54 AM 59.0 °F 57.0 °F 93% 29.91 in 8.0 mi Calm Calm - N/A   Overcast
5:54 AM 61.0 °F 57.0 °F 87% 29.91 in 8.0 mi North 11.5 mph - 0.01 in   Overcast
6:19 AM 60.8 °F 57.2 °F 88% 29.93 in 9.0 mi North 6.9 mph - N/A   Overcast
6:54 AM 60.1 °F 53.1 °F 78% 29.92 in 10.0 mi North 6.9 mph - N/A   Overcast
7:54 AM 59.0 °F 48.9 °F 69% 29.94 in 10.0 mi North 12.7 mph - N/A   Overcast
8:23 AM 57.2 °F 48.2 °F 72% 29.99 in 1.8 mi North 15.0 mph - 0.05 in Rain Rain
8:33 AM 55.4 °F 48.2 °F 77% 30.00 in 3.0 mi NNW 10.4 mph - 0.07 in Rain Light Rain
8:54 AM 55.9 °F 48.9 °F 77% 29.99 in 10.0 mi North 17.3 mph - 0.07 in Rain Light Rain
9:54 AM 55.0 °F 51.1 °F 86% 30.01 in 8.0 mi North 18.4 mph 27.6 mph 0.00 in Rain Light Rain
10:36 AM 55.4 °F 51.8 °F 88% 30.02 in 10.0 mi North 17.3 mph - 0.00 in Thunderstorm Overcast
10:49 AM 55.4 °F 51.8 °F 88% 30.04 in 10.0 mi North 15.0 mph 21.9 mph 0.00 in Thunderstorm Overcast
10:54 AM 55.9 °F 51.1 °F 84% 30.03 in 10.0 mi North 16.1 mph 19.6 mph 0.00 in   Overcast
11:05 AM 55.4 °F 51.8 °F 88% 30.04 in 10.0 mi North 13.8 mph - N/A   Overcast
11:27 AM 55.4 °F 51.8 °F 88% 30.04 in 10.0 mi North 15.0 mph - 0.01 in Rain Light Rain
11:36 AM 55.4 °F 51.8 °F 88% 30.03 in 10.0 mi North 8.1 mph - 0.01 in Rain Light Rain
11:54 AM 54.0 °F 50.0 °F 86% 30.03 in 9.0 mi North 15.0 mph - 0.01 in Rain Light Rain
12:54 PM 57.9 °F 50.0 °F 75% 30.04 in 10.0 mi North 17.3 mph - 0.00 in   Mostly Cloudy
1:21 PM 60.8 °F 50.0 °F 68% 30.05 in 10.0 mi North 16.1 mph 27.6 mph N/A   Mostly Cloudy
1:54 PM 62.1 °F 48.9 °F 62% 30.03 in 10.0 mi North 13.8 mph 23.0 mph N/A   Scattered Clouds
2:54 PM 66.0 °F 44.1 °F 45% 30.01 in 10.0 mi North 16.1 mph 25.3 mph N/A   Clear
3:54 PM 68.0 °F 41.0 °F 37% 29.99 in 10.0 mi North 16.1 mph 23.0 mph N/A   Clear
4:54 PM 69.1 °F 35.1 °F 29% 29.98 in 10.0 mi North 17.3 mph 27.6 mph N/A   Partly Cloudy
5:54 PM 69.1 °F 36.0 °F 30% 29.98 in 10.0 mi North 12.7 mph - N/A   Partly Cloudy
6:54 PM 66.0 °F 36.0 °F 33% 29.99 in 10.0 mi North 11.5 mph - N/A   Clear
7:54 PM 55.9 °F 37.9 °F 51% 30.00 in 10.0 mi NW 5.8 mph - N/A   Clear
8:54 PM 55.9 °F 39.0 °F 53% 30.02 in 10.0 mi NNW 5.8 mph - N/A   Scattered Clouds
9:54 PM 51.1 °F 41.0 °F 68% 30.05 in 10.0 mi NNW 8.1 mph - N/A   Partly Cloudy
10:54 PM 50.0 °F 39.9 °F 68% 30.07 in 10.0 mi NNW 6.9 mph - N/A   Partly Cloudy
11:54 PM 46.9 °F 39.9 °F 77% 30.08 in 10.0 mi NNW 8.1 mph - N/A   Clear